Time,TemperatureF,DewpointF,PressureIn,WindDirection,WindDirectionDegrees,WindSpeedMPH,WindSpeedGustMPH,Humidity,HourlyPrecipIn,Conditions,Clouds,dailyrainin,SoftwareType,DateUTC
2018-05-27 00:02:00,71.6,69.0,29.94,East,90,0.0,2.0,92,0.00,,,0.00,weatherlink.com 1.10,2018-05-27 04:02:00,
2018-05-27 00:17:00,71.9,70.0,29.94,NW,321,0.0,4.0,92,0.01,,,0.01,weatherlink.com 1.10,2018-05-27 04:17:00,
2018-05-27 00:32:00,72.0,70.0,29.94,SSE,158,0.0,4.0,92,0.01,,,0.01,weatherlink.com 1.10,2018-05-27 04:32:00,
2018-05-27 00:47:00,72.0,70.0,29.94,SW,221,0.0,6.0,92,0.01,,,0.01,weatherlink.com 1.10,2018-05-27 04:47:00,
2018-05-27 01:02:00,71.9,70.0,29.95,South,185,1.0,4.0,92,0.01,,,0.01,weatherlink.com 1.10,2018-05-27 05:02:00,
2018-05-27 01:17:00,71.9,70.0,29.94,SSE,163,0.0,4.0,92,0.00,,,0.01,weatherlink.com 1.10,2018-05-27 05:17:00,
2018-05-27 01:32:00,71.8,69.0,29.94,East,79,2.0,4.0,92,0.00,,,0.01,weatherlink.com 1.10,2018-05-27 05:32:00,
2018-05-27 01:47:00,71.7,69.0,29.94,SW,217,0.0,3.0,92,0.00,,,0.01,weatherlink.com 1.10,2018-05-27 05:47:00,
2018-05-27 02:02:00,71.5,69.0,29.94,SSE,162,0.0,6.0,92,0.00,,,0.01,weatherlink.com 1.10,2018-05-27 06:02:00,
2018-05-27 02:17:00,71.3,69.0,29.94,SE,132,0.0,2.0,92,0.00,,,0.01,weatherlink.com 1.10,2018-05-27 06:17:00,
2018-05-27 02:32:00,71.1,69.0,29.95,SE,135,0.0,2.0,92,0.00,,,0.01,weatherlink.com 1.10,2018-05-27 06:32:00,
2018-05-27 02:47:00,71.1,69.0,29.95,SSE,150,1.0,2.0,92,0.00,,,0.01,weatherlink.com 1.10,2018-05-27 06:47:00,
2018-05-27 03:02:00,71.0,69.0,29.95,ESE,118,0.0,1.0,92,0.00,,,0.01,weatherlink.com 1.10,2018-05-27 07:02:00,
2018-05-27 03:18:00,70.9,69.0,29.94,SE,136,0.0,2.0,92,0.00,,,0.01,weatherlink.com 1.10,2018-05-27 07:18:00,
2018-05-27 03:33:00,70.7,68.0,29.94,SW,233,0.0,1.0,92,0.00,,,0.01,weatherlink.com 1.10,2018-05-27 07:33:00,
2018-05-27 03:48:00,70.5,68.0,29.94,SW,226,0.0,2.0,92,0.00,,,0.01,weatherlink.com 1.10,2018-05-27 07:48:00,
2018-05-27 04:03:00,70.4,68.0,29.94,SSW,200,0.0,4.0,92,0.00,,,0.01,weatherlink.com 1.10,2018-05-27 08:03:00,
2018-05-27 04:18:00,70.2,68.0,29.94,SW,225,0.0,2.0,92,0.00,,,0.01,weatherlink.com 1.10,2018-05-27 08:18:00,
2018-05-27 04:33:00,70.0,68.0,29.94,SE,136,0.0,0.0,92,0.00,,,0.01,weatherlink.com 1.10,2018-05-27 08:33:00,
2018-05-27 04:48:00,69.7,67.0,29.95,SE,139,0.0,0.0,92,0.00,,,0.01,weatherlink.com 1.10,2018-05-27 08:48:00,
2018-05-27 05:03:00,69.6,67.0,29.95,SSE,166,1.0,2.0,92,0.00,,,0.01,weatherlink.com 1.10,2018-05-27 09:03:00,
2018-05-27 05:18:00,69.4,67.0,29.95,SSE,165,0.0,1.0,92,0.00,,,0.01,weatherlink.com 1.10,2018-05-27 09:18:00,
2018-05-27 05:33:00,69.3,67.0,29.95,SE,138,0.0,1.0,93,0.00,,,0.01,weatherlink.com 1.10,2018-05-27 09:33:00,
2018-05-27 05:48:00,69.1,67.0,29.96,SE,131,0.0,0.0,93,0.00,,,0.01,weatherlink.com 1.10,2018-05-27 09:48:00,
2018-05-27 06:03:00,69.0,67.0,29.96,SSE,149,0.0,1.0,93,0.00,,,0.01,weatherlink.com 1.10,2018-05-27 10:03:00,
2018-05-27 06:18:00,68.8,67.0,29.97,SSE,149,0.0,0.0,93,0.00,,,0.01,weatherlink.com 1.10,2018-05-27 10:18:00,
2018-05-27 06:33:00,68.8,67.0,29.97,SE,139,0.0,1.0,93,0.00,,,0.01,weatherlink.com 1.10,2018-05-27 10:33:00,
2018-05-27 06:48:00,69.0,67.0,29.98,SE,136,0.0,2.0,93,0.00,,,0.01,weatherlink.com 1.10,2018-05-27 10:48:00,
2018-05-27 07:03:00,69.3,67.0,29.98,SE,145,0.0,4.0,93,0.00,,,0.01,weatherlink.com 1.10,2018-05-27 11:03:00,
2018-05-27 07:18:00,69.7,68.0,29.98,SE,145,0.0,2.0,93,0.00,,,0.01,weatherlink.com 1.10,2018-05-27 11:18:00,
2018-05-27 07:33:00,70.1,68.0,29.99,NW,325,0.0,4.0,93,0.00,,,0.01,weatherlink.com 1.10,2018-05-27 11:33:00,
2018-05-27 07:48:00,70.7,69.0,29.99,ESE,104,1.0,3.0,93,0.00,,,0.01,weatherlink.com 1.10,2018-05-27 11:48:00,
2018-05-27 08:03:00,71.5,69.0,30.00,SE,139,3.0,5.0,92,0.00,,,0.01,weatherlink.com 1.10,2018-05-27 12:03:00,
2018-05-27 08:18:00,72.5,70.0,30.00,SE,137,0.0,6.0,91,0.00,,,0.01,weatherlink.com 1.10,2018-05-27 12:18:00,
2018-05-27 08:33:00,73.5,71.0,30.00,SSE,153,4.0,6.0,90,0.00,,,0.01,weatherlink.com 1.10,2018-05-27 12:33:00,
2018-05-27 08:48:00,74.6,71.0,30.00,SE,145,2.0,3.0,89,0.00,,,0.01,weatherlink.com 1.10,2018-05-27 12:48:00,
2018-05-27 09:03:00,74.8,71.0,30.00,ESE,121,0.0,5.0,87,0.00,,,0.01,weatherlink.com 1.10,2018-05-27 13:03:00,
2018-05-27 09:18:00,75.7,72.0,30.00,NW,316,2.0,4.0,87,0.00,,,0.01,weatherlink.com 1.10,2018-05-27 13:18:00,
2018-05-27 09:33:00,76.1,72.0,30.01,NNW,330,0.0,4.0,86,0.00,,,0.01,weatherlink.com 1.10,2018-05-27 13:33:00,
2018-05-27 09:48:00,76.7,72.0,30.01,North,359,1.0,4.0,84,0.00,,,0.01,weatherlink.com 1.10,2018-05-27 13:48:00,
2018-05-27 10:03:00,78.2,72.0,30.00,NNE,22,1.0,8.0,82,0.00,,,0.01,weatherlink.com 1.10,2018-05-27 14:03:00,
2018-05-27 10:18:00,79.7,73.0,30.00,East,94,1.0,4.0,80,0.00,,,0.01,weatherlink.com 1.10,2018-05-27 14:18:00,